| Back to River Map | <<< Previous Forecast Point | | | Next Forecast Point >>> | Printer Version | Graph Version |  |
|
MARYS RIVER - ABOVE HOT SPRINGS CREEK (MHSN2)
| Latitude: 41.25º N | Longitude: 115.26º W | Elevation: 5504 Feet | | Forecast Type: Official Location |
| Location: Elko County in Nevada | Bulletin Group: Humboldt | River Group: Humboldt |
| Issuance Time: | May 08 2026 at 8:27 AM PDT | Next Issuance: | May 09 2026 at 9:00 AM PDT
| |
| Action/Monitor: 5.5 Feet | Minor Flood: 6.0 Feet | Moderate Flood: 7.5 Feet | Major Flood: 9.0 Feet |
# Tabular Observed and Forecast Hydrograph Information
#
# Location: Marys River - Above Hot Springs Creek (MHSN2)
#
# File Generation Time: 05/08/2026 at 08:27 AM PDT
# Data Interval: 1 Hour
#
# Most Recent Date & Time of Maximum Observed: 05/07/2026 at 01:00 PM PDT
# Maximum Observed Stage: 1.93 Feet
# Maximum Observed Flow: 29 cfs
#
# Earliest Date & Time of Maximum Forecast: 05/08/2026 at 09:00 AM PDT
# Maximum Forecast Stage: 1.91 Feet
# Maximum Forecast Flow: 28 cfs
#
# OBSERVED
#
# Date & Time (Local) Stage (Feet) Flow (cfs) Trend Observed Status
# ---------------------------------------------------------------------------------
05/03/2026 08 AM PDT 1.87 26 Normal
05/03/2026 09 AM PDT 1.88 27 + Normal
05/03/2026 10 AM PDT 1.89 27 + Normal
05/03/2026 11 AM PDT 1.88 27 - Normal
05/03/2026 12 PM PDT 1.89 27 + Normal
05/03/2026 01 PM PDT 1.89 27 0 Normal
05/03/2026 02 PM PDT 1.90 28 + Normal
05/03/2026 03 PM PDT 1.90 28 0 Normal
05/03/2026 04 PM PDT 1.90 28 0 Normal
05/03/2026 05 PM PDT 1.89 27 - Normal
05/03/2026 06 PM PDT 1.88 27 - Normal
05/03/2026 07 PM PDT 1.89 27 + Normal
05/03/2026 08 PM PDT 1.88 27 - Normal
05/03/2026 09 PM PDT 1.87 26 - Normal
05/03/2026 10 PM PDT 1.89 27 + Normal
05/03/2026 11 PM PDT 1.86 26 - Normal
05/04/2026 12 AM PDT 1.86 26 0 Normal
05/04/2026 01 AM PDT 1.86 26 0 Normal
05/04/2026 02 AM PDT 1.86 26 0 Normal
05/04/2026 03 AM PDT 1.87 26 + Normal
05/04/2026 04 AM PDT 1.87 26 0 Normal
05/04/2026 05 AM PDT 1.87 26 0 Normal
05/04/2026 06 AM PDT 1.87 26 0 Normal
05/04/2026 07 AM PDT 1.87 26 0 Normal
05/04/2026 08 AM PDT 1.87 26 0 Normal
05/04/2026 09 AM PDT 1.86 26 - Normal
05/04/2026 10 AM PDT 1.87 26 + Normal
05/04/2026 11 AM PDT 1.88 27 + Normal
05/04/2026 12 PM PDT 1.88 27 0 Normal
05/04/2026 01 PM PDT 1.89 27 + Normal
05/04/2026 02 PM PDT 1.89 27 0 Normal
05/04/2026 03 PM PDT 1.88 27 - Normal
05/04/2026 04 PM PDT 1.90 28 + Normal
05/04/2026 05 PM PDT 1.89 27 - Normal
05/04/2026 06 PM PDT 1.89 27 0 Normal
05/04/2026 07 PM PDT 1.88 27 - Normal
05/04/2026 08 PM PDT 1.87 26 - Normal
05/04/2026 09 PM PDT 1.87 26 0 Normal
05/04/2026 10 PM PDT 1.87 26 0 Normal
05/04/2026 11 PM PDT 1.86 26 - Normal
05/05/2026 12 AM PDT 1.86 26 0 Normal
05/05/2026 01 AM PDT 1.86 26 0 Normal
05/05/2026 02 AM PDT 1.85 25 - Normal
05/05/2026 03 AM PDT 1.86 26 + Normal
05/05/2026 04 AM PDT 1.86 26 0 Normal
05/05/2026 05 AM PDT 1.87 26 + Normal
05/05/2026 06 AM PDT 1.87 26 0 Normal
05/05/2026 07 AM PDT 1.87 26 0 Normal
05/05/2026 08 AM PDT 1.87 26 0 Normal
05/05/2026 09 AM PDT 1.88 27 + Normal
05/05/2026 10 AM PDT 1.88 27 0 Normal
05/05/2026 11 AM PDT 1.88 27 0 Normal
05/05/2026 12 PM PDT 1.89 27 + Normal
05/05/2026 01 PM PDT 1.89 27 0 Normal
05/05/2026 02 PM PDT 1.91 28 + Normal
05/05/2026 03 PM PDT 1.91 28 0 Normal
05/05/2026 04 PM PDT 1.90 28 - Normal
05/05/2026 05 PM PDT 1.89 27 - Normal
05/05/2026 06 PM PDT 1.88 27 - Normal
05/05/2026 07 PM PDT 1.87 26 - Normal
05/05/2026 08 PM PDT 1.86 26 - Normal
05/05/2026 09 PM PDT 1.88 27 + Normal
05/05/2026 10 PM PDT 1.89 27 + Normal
05/05/2026 11 PM PDT 1.88 27 - Normal
05/06/2026 12 AM PDT 1.87 26 - Normal
05/06/2026 01 AM PDT 1.87 26 0 Normal
05/06/2026 02 AM PDT 1.88 27 + Normal
05/06/2026 03 AM PDT 1.87 26 - Normal
05/06/2026 04 AM PDT 1.87 26 0 Normal
05/06/2026 05 AM PDT 1.87 26 0 Normal
05/06/2026 06 AM PDT 1.87 26 0 Normal
05/06/2026 07 AM PDT 1.87 26 0 Normal
05/06/2026 08 AM PDT 1.89 27 + Normal
05/06/2026 09 AM PDT 1.86 26 - Normal
05/06/2026 10 AM PDT 1.88 27 + Normal
05/06/2026 11 AM PDT 1.88 27 0 Normal
05/06/2026 12 PM PDT 1.89 27 + Normal
05/06/2026 01 PM PDT 1.89 27 0 Normal
05/06/2026 02 PM PDT 1.90 28 + Normal
05/06/2026 03 PM PDT 1.89 27 - Normal
05/06/2026 04 PM PDT 1.89 27 0 Normal
05/06/2026 05 PM PDT 1.90 28 + Normal
05/06/2026 06 PM PDT 1.89 27 - Normal
05/06/2026 07 PM PDT 1.89 27 0 Normal
05/06/2026 08 PM PDT 1.89 27 0 Normal
05/06/2026 09 PM PDT 1.86 26 - Normal
05/06/2026 10 PM PDT 1.87 26 + Normal
05/06/2026 11 PM PDT 1.88 27 + Normal
05/07/2026 12 AM PDT 1.88 27 0 Normal
05/07/2026 01 AM PDT 1.87 26 - Normal
05/07/2026 02 AM PDT 1.87 26 0 Normal
05/07/2026 03 AM PDT 1.86 26 - Normal
05/07/2026 04 AM PDT 1.87 26 + Normal
05/07/2026 05 AM PDT 1.87 26 0 Normal
05/07/2026 06 AM PDT 1.88 27 + Normal
05/07/2026 07 AM PDT 1.87 26 - Normal
05/07/2026 08 AM PDT 1.88 27 + Normal
05/07/2026 09 AM PDT 1.87 26 - Normal
05/07/2026 10 AM PDT 1.90 28 + Normal
05/07/2026 11 AM PDT 1.91 28 + Normal
05/07/2026 12 PM PDT 1.91 28 0 Normal
05/07/2026 01 PM PDT 1.93 29 + Normal
05/07/2026 02 PM PDT 1.92 29 - Normal
05/07/2026 03 PM PDT 1.92 29 0 Normal
05/07/2026 04 PM PDT 1.92 29 0 Normal
05/07/2026 05 PM PDT 1.92 29 0 Normal
05/07/2026 06 PM PDT 1.91 28 - Normal
05/07/2026 07 PM PDT 1.90 28 - Normal
05/07/2026 08 PM PDT 1.90 28 0 Normal
05/07/2026 09 PM PDT 1.90 28 0 Normal
05/07/2026 10 PM PDT 1.88 27 - Normal
05/07/2026 11 PM PDT 1.89 27 + Normal
05/08/2026 12 AM PDT 1.89 27 0 Normal
05/08/2026 01 AM PDT 1.91 28 + Normal
05/08/2026 02 AM PDT 1.90 28 - Normal
05/08/2026 03 AM PDT 1.89 27 - Normal
05/08/2026 04 AM PDT 1.89 27 0 Normal
05/08/2026 05 AM PDT 1.90 28 + Normal
05/08/2026 06 AM PDT 1.91 28 + Normal
05/08/2026 07 AM PDT 1.91 28 0 Normal
05/08/2026 08 AM PDT 1.91 28 0 Normal
#
# FORECAST
#
# Date & Time (Local) Stage (Feet) Flow (cfs) Trend Forecast Status
# ---------------------------------------------------------------------------------
05/08/2026 09 AM PDT 1.91 28 Normal
05/08/2026 10 AM PDT 1.91 28 0 Normal
05/08/2026 11 AM PDT 1.90 28 - Normal
05/08/2026 12 PM PDT 1.90 28 0 Normal
05/08/2026 01 PM PDT 1.90 28 0 Normal
05/08/2026 02 PM PDT 1.90 28 0 Normal
05/08/2026 03 PM PDT 1.90 28 0 Normal
05/08/2026 04 PM PDT 1.90 28 0 Normal
05/08/2026 05 PM PDT 1.90 28 0 Normal
05/08/2026 06 PM PDT 1.89 27 - Normal
05/08/2026 07 PM PDT 1.89 27 0 Normal
05/08/2026 08 PM PDT 1.89 27 0 Normal
05/08/2026 09 PM PDT 1.89 27 0 Normal
05/08/2026 10 PM PDT 1.89 27 0 Normal
05/08/2026 11 PM PDT 1.89 27 0 Normal
05/09/2026 12 AM PDT 1.89 27 0 Normal
05/09/2026 01 AM PDT 1.89 27 0 Normal
05/09/2026 02 AM PDT 1.88 27 - Normal
05/09/2026 03 AM PDT 1.88 27 0 Normal
05/09/2026 04 AM PDT 1.88 27 0 Normal
05/09/2026 05 AM PDT 1.88 27 0 Normal
05/09/2026 06 AM PDT 1.88 27 0 Normal
05/09/2026 07 AM PDT 1.88 27 0 Normal
05/09/2026 08 AM PDT 1.88 27 0 Normal
05/09/2026 09 AM PDT 1.87 26 - Normal
05/09/2026 10 AM PDT 1.87 26 0 Normal
05/09/2026 11 AM PDT 1.87 26 0 Normal
05/09/2026 12 PM PDT 1.87 26 0 Normal
05/09/2026 01 PM PDT 1.87 26 0 Normal
05/09/2026 02 PM PDT 1.87 26 0 Normal
05/09/2026 03 PM PDT 1.86 26 - Normal
05/09/2026 04 PM PDT 1.86 26 0 Normal
05/09/2026 05 PM PDT 1.86 26 0 Normal
05/09/2026 06 PM PDT 1.86 26 0 Normal
05/09/2026 07 PM PDT 1.86 26 0 Normal
05/09/2026 08 PM PDT 1.86 26 0 Normal
05/09/2026 09 PM PDT 1.86 26 0 Normal
05/09/2026 10 PM PDT 1.86 26 0 Normal
05/09/2026 11 PM PDT 1.85 25 - Normal
05/10/2026 12 AM PDT 1.85 25 0 Normal
05/10/2026 01 AM PDT 1.85 25 0 Normal
05/10/2026 02 AM PDT 1.85 25 0 Normal
05/10/2026 03 AM PDT 1.85 25 0 Normal
05/10/2026 04 AM PDT 1.85 25 0 Normal
05/10/2026 05 AM PDT 1.85 25 0 Normal
05/10/2026 06 AM PDT 1.84 25 - Normal
05/10/2026 07 AM PDT 1.84 25 0 Normal
05/10/2026 08 AM PDT 1.84 25 0 Normal
05/10/2026 09 AM PDT 1.84 25 0 Normal
05/10/2026 10 AM PDT 1.84 25 0 Normal
05/10/2026 11 AM PDT 1.84 25 0 Normal
05/10/2026 12 PM PDT 1.84 25 0 Normal
05/10/2026 01 PM PDT 1.84 25 0 Normal
05/10/2026 02 PM PDT 1.83 24 - Normal
05/10/2026 03 PM PDT 1.83 24 0 Normal
05/10/2026 04 PM PDT 1.83 24 0 Normal
05/10/2026 05 PM PDT 1.83 24 0 Normal
05/10/2026 06 PM PDT 1.83 24 0 Normal
05/10/2026 07 PM PDT 1.83 24 0 Normal
05/10/2026 08 PM PDT 1.83 24 0 Normal
05/10/2026 09 PM PDT 1.83 24 0 Normal
05/10/2026 10 PM PDT 1.82 24 - Normal
05/10/2026 11 PM PDT 1.82 24 0 Normal
05/11/2026 12 AM PDT 1.82 24 0 Normal
05/11/2026 01 AM PDT 1.82 24 0 Normal
05/11/2026 02 AM PDT 1.82 24 0 Normal
05/11/2026 03 AM PDT 1.82 24 0 Normal
05/11/2026 04 AM PDT 1.82 24 0 Normal
05/11/2026 05 AM PDT 1.81 23 - Normal
05/11/2026 06 AM PDT 1.81 23 0 Normal
05/11/2026 07 AM PDT 1.81 23 0 Normal
05/11/2026 08 AM PDT 1.81 23 0 Normal
05/11/2026 09 AM PDT 1.81 23 0 Normal
05/11/2026 10 AM PDT 1.81 23 0 Normal
05/11/2026 11 AM PDT 1.81 23 0 Normal
05/11/2026 12 PM PDT 1.81 23 0 Normal
05/11/2026 01 PM PDT 1.80 23 - Normal
05/11/2026 02 PM PDT 1.80 23 0 Normal
05/11/2026 03 PM PDT 1.80 23 0 Normal
05/11/2026 04 PM PDT 1.80 23 0 Normal
05/11/2026 05 PM PDT 1.80 23 0 Normal
05/11/2026 06 PM PDT 1.80 23 0 Normal
05/11/2026 07 PM PDT 1.80 23 0 Normal
05/11/2026 08 PM PDT 1.79 22 - Normal
05/11/2026 09 PM PDT 1.79 22 0 Normal
05/11/2026 10 PM PDT 1.79 22 0 Normal
05/11/2026 11 PM PDT 1.79 22 0 Normal
05/12/2026 12 AM PDT 1.79 22 0 Normal
05/12/2026 01 AM PDT 1.79 22 0 Normal
05/12/2026 02 AM PDT 1.79 22 0 Normal
05/12/2026 03 AM PDT 1.79 22 0 Normal
05/12/2026 04 AM PDT 1.78 22 - Normal
05/12/2026 05 AM PDT 1.78 22 0 Normal
05/12/2026 06 AM PDT 1.78 22 0 Normal
05/12/2026 07 AM PDT 1.78 22 0 Normal
05/12/2026 08 AM PDT 1.78 22 0 Normal
05/12/2026 09 AM PDT 1.78 22 0 Normal
05/12/2026 10 AM PDT 1.78 22 0 Normal
05/12/2026 11 AM PDT 1.78 22 0 Normal
05/12/2026 12 PM PDT 1.77 22 - Normal
05/12/2026 01 PM PDT 1.77 22 0 Normal
05/12/2026 02 PM PDT 1.77 22 0 Normal
05/12/2026 03 PM PDT 1.77 22 0 Normal
05/12/2026 04 PM PDT 1.77 22 0 Normal
05/12/2026 05 PM PDT 1.77 22 0 Normal
05/12/2026 06 PM PDT 1.77 22 0 Normal
05/12/2026 07 PM PDT 1.77 22 0 Normal
05/12/2026 08 PM PDT 1.76 21 - Normal
05/12/2026 09 PM PDT 1.76 21 0 Normal
05/12/2026 10 PM PDT 1.76 21 0 Normal
05/12/2026 11 PM PDT 1.76 21 0 Normal
05/13/2026 12 AM PDT 1.76 21 0 Normal
05/13/2026 01 AM PDT 1.76 21 0 Normal
05/13/2026 02 AM PDT 1.76 21 0 Normal
05/13/2026 03 AM PDT 1.76 21 0 Normal
05/13/2026 04 AM PDT 1.75 21 - Normal
05/13/2026 05 AM PDT 1.75 21 0 Normal
#
# NOTE 1: Stages are rounded to the nearest hundredth (.01) of a foot.
# NOTE 2: Flows are rounded to the nearest (1) cfs.
# NOTE 3: Trends are determined using hourly change in unrounded stage and flow.
# NOTE 4: Maximum Values are determined using unrounded stage and flow.
|